星链-32470 (STARLINK-32470)

导读

STARLINK-32470是美国太空探索技术公司SpaceX于2024年11月27日发射的星链卫星,属于星链(Starlink)全球低轨卫星互联网星座的组成部分。星链项目旨在通过部署数千颗低轨卫星,为全球尤其是地面网络难以覆盖的偏远地区,提供高速、低延迟的宽带互联网接入服务,同时可支持军事通信、应急互联等多元场景应用,目前已进入在轨运行阶段。

基本信息
目录编号:
62115
目录名称:
STARLINK-32470
国际标识:
2024-222B
轨道中心:
EARTH
卫星名称:
星链-32470
卫星全名:
星链-32470 (STARLINK-32470)
卫星状态:
在轨 (已飞行646 天)
发射日期:
2024-11-27 UTC
国别 :
美国 (US)
星等 :
--
轨道信息
数据来源 国际轨道数据 AOE轨道数据
星历时间 2026-09-04T22:29:47+0800
5小时前
查看轨道信息
2026-09-03T23:00:00+0800
1天前
查看轨道信息
半长轴 6861.131km 6861.237km
偏心率 0.0002615 0.0001962
轨道倾角 43.001° 43.001°
近地点辐角 246.459° 214.463°
升交点赤经 205.601° 211.121°
平近点角 113.599° 155.401°
近地点 481.199km 481.753km
远地点 484.789km 484.447km
周期 94.266分钟 94.268分钟
每日圈数 15.275985 15.275631
详细信息
固有亮度:
5
最大亮度:
2.5
卫星平台:
Starlink V1.0
覆盖范围:
全球
运营商:
太空探索技术公司
运营商所在国:
美国
制造商(研发单位):
太空探索技术公司
制造商所在国:
美国
使用方式:
暂无
卫星简介
Starlink 计划是 SpaceX 推出的全球卫星互联网项目,通过发射低轨道卫星,为全球尤其是偏远地区提供高速、低延迟的互联网服务。自 2019 年起,Starlink 已部署数千颗卫星,旨在缩小全球数字鸿沟,推动互联网普及。该项目还为军事、航空等行业提供通信支持,带来广泛经济效益。
2D轨道图
3D轨道图
轨道高度分析图
轨道倾角分析图
轨道综合分析图
查看轨道综合分析图
交会数据列表
事件ID 空间交会对象 最接近时刻(TCA) 交会距离 交会风险概率(CRP) 交会风险指数(CRI) 操作
CDM_260830-161806-211506-385821
2026-08-30T
16:18:31+0000
0.181 km
中距离
6.245615E-4 高风险 0.91
CDM_260906-095205-967006-211521
2026-09-06T
09:52:00+0000
0.878 km
远距离
2.693693E-5 中风险 0.64
CDM_260905-120906-211506-674821
UMBRA-11 (66748)
2026-09-05T
12:09:30+0000
1.526 km
极远距离
5.811881E-6 低风险 0.5
CDM_260906-182905-967006-211521
2026-09-06T
18:29:51+0000
1.680 km
极远距离
3.07974E-6 低风险 0.45
CDM_260906-200405-967006-211521
2026-09-06T
20:04:00+0000
1.905 km
极远距离
2.174218E-6 低风险 0.42
CDM_260830-144406-211506-385821
2026-08-30T
14:44:22+0000
1.801 km
极远距离
1.920379E-6 低风险 0.41